カタログに戻る

STARLINK-34945

運用中通信SSO
NORAD 65185·PAYLOAD·🇺🇸 United States

打ち上げ Aug 14, 2025 から Vandenberg Space Force Base

Loading…

次のパス (今後24時間)

TLE

最新Source: CelesTrak SupGP

元期: Sep 14, 2026, 21:04 UTC

1 65185C 25175M   26257.87826389 -.00029335  00000+0 -91084-3 0  2573
2 65185  97.2844 126.8879 0001877  91.7916  61.2760 15.33445683    13

AllMySatでSTARLINK-34945をリアルタイム追跡

Download on the App Store